Lamar, CO

12:22 AM MDT on May 25, 2017 (GMT -0600)
Lamar Municipal

Weather History for KLAA - May, 2013

Change the Weather History Date:

Monday, May 20, 2013

  Actual Average Record
Temperature  
Mean Temperature 59 °F 64 °F  
Max Temperature 75 °F 80 °F 103 °F (1925)
Min Temperature 42 °F 48 °F 33 °F (1931)
Degree Days  
Heating Degree Days 6 3  
Month to date heating degree days 159 115  
Since 1 July heating degree days 5479 5515  
Cooling Degree Days 0 2  
Month to date cooling degree days 63 24  
Year to date cooling degree days 65 29  
Growing Degree Days 10 (Base 50)    
Moisture  
Dew Point 40 °F    
Average Humidity 54    
Maximum Humidity 83    
Minimum Humidity 25    
Precipitation  
Precipitation 0.01 in 0.06 in 1.25 in (1983)
Month to date precipitation 0.24 1.04  
Year to date precipitation 0.57  
Sea Level Pressure  
Sea Level Pressure 29.78 in    
Wind  
Wind Speed 10 mph (NNW)    
Max Wind Speed 30 mph    
Max Gust Speed 35 mph    
Visibility 10 miles    
Events Rain , Thunderstorm    
T = Trace of Precipitation, MM = Missing Value Source: NWS Daily Summary

Daily Weather History Graph

Daily Weather History Graph

Search for Another Location

Airport or City:

Trip Planner

Search our weather history database for the weather conditions in past years. The results will help you decide how hot, cold, wet, or windy it might be!

Date:

Astronomy

May. 20, 2013 Rise Set
Actual Time 5:36 AM MDT 7:59 PM MDT
Civil Twilight 5:06 AM MDT 8:29 PM MDT
Nautical Twilight 4:29 AM MDT 9:06 PM MDT
Astronomical Twilight 3:48 AM MDT 9:47 PM MDT
Moon 3:13 PM MDT (5/20) 2:27 AM MDT (5/20)
Length of Visible Light 15h 23m
Length of Day
14h 22m
Waxing Gibbous, 75% of the Moon is Illuminated
May 20
Waxing Gibbous
May 24
Full
May 31
Last Quarter
Jun 8
New
Jun 16
First Quarter

Hourly Weather History & Observations

Time (MDT) Temp. Windchill Dew Point Humidity Pressure Visibility Wind Dir Wind Speed Gust Speed Precip Events Conditions
12:53 AM 52.0 °F - 39.0 °F 61% 29.68 in 10.0 mi North 3.5 mph - N/A   Scattered Clouds
1:53 AM 50.0 °F - 42.1 °F 74% 29.69 in 10.0 mi SW 3.5 mph - N/A   Clear
2:53 AM 46.0 °F 42.5 °F 41.0 °F 83% 29.70 in 10.0 mi SW 6.9 mph - N/A   Clear
3:53 AM 46.0 °F 41.4 °F 41.0 °F 83% 29.70 in 10.0 mi SSW 9.2 mph - N/A   Clear
6:53 AM 50.0 °F - 39.9 °F 68% 29.79 in 10.0 mi Calm Calm - N/A   Clear
8:53 AM 63.0 °F - 43.0 °F 48% 29.78 in 10.0 mi NNW 13.8 mph - N/A   Clear
9:53 AM 66.0 °F - 41.0 °F 40% 29.77 in 10.0 mi North 10.4 mph 18.4 mph N/A   Clear
10:53 AM 68.0 °F - 39.9 °F 36% 29.77 in 10.0 mi North 6.9 mph - N/A   Mostly Cloudy
12:53 PM 69.1 °F - 39.9 °F 35% 29.74 in 10.0 mi North 6.9 mph - 0.00 in   Overcast
1:41 PM 71.6 °F - 42.8 °F 35% 29.85 in 10.0 mi North 19.6 mph - 0.00 in Thunderstorm Thunderstorm
1:53 PM 68.0 °F - 43.0 °F 40% 29.77 in 10.0 mi NNW 11.5 mph - 0.00 in   Scattered Clouds
2:10 PM 68.0 °F - 39.2 °F 35% 29.84 in 10.0 mi NW 19.6 mph 32.2 mph N/A Thunderstorm Scattered Clouds
2:40 PM 69.8 °F - 33.8 °F 27% 29.84 in 10.0 mi WNW 8.1 mph 18.4 mph 0.00 in   Mostly Cloudy
2:53 PM 70.0 °F - 33.1 °F 26% 29.75 in 10.0 mi NW 12.7 mph - 0.00 in   Mostly Cloudy
3:53 PM 73.0 °F - 36.0 °F 26% 29.73 in 10.0 mi NNE 16.1 mph 21.9 mph N/A   Clear
4:53 PM 69.1 °F - 41.0 °F 36% 29.75 in 10.0 mi NNE 15.0 mph 24.2 mph N/A   Clear
5:53 PM 73.0 °F - 36.0 °F 26% 29.76 in 10.0 mi NNE 16.1 mph - N/A   Clear
6:53 PM 64.9 °F - 41.0 °F 42% 29.80 in 10.0 mi North 25.3 mph 34.5 mph N/A   Partly Cloudy
8:53 PM 59.0 °F - 43.0 °F 55% 29.88 in 8.0 mi WNW 9.2 mph - 0.01 in Rain Light Rain
9:53 PM 57.9 °F - 41.0 °F 53% 29.90 in 10.0 mi North 6.9 mph - 0.00 in   Overcast
10:53 PM 57.9 °F - 39.9 °F 51% 29.90 in 10.0 mi Calm Calm - N/A   Overcast
11:53 PM 57.0 °F - 39.9 °F 53% 29.86 in 10.0 mi North 10.4 mph - N/A   Overcast